Tiempo atmosférico en la estación meteorológica de El Pinar, Depósito, Santa Cruz de Tenerife (948 m.)



Fecha
DESCASC
Temp. máxima en grados centígrados (hora)
DESCASC
Temp. mínima en grados centígrados (hora)
DESCASC
Temp. media en grados centígrados
DESCASC
Racha de viento máxima en m/sg (hora)
DESCASC
Velocidad máxima media en intervalos de 10 minutos(hora)
DESCASC
Precipitaciones diarias en mm
DESCASC
Precipitaciones de 00:00 a 06:00 en mm
DESCASC
Precipitaciones de 06:00 a 12:00 en mm
DESCASC
Precipitaciones de 12:00 a 18:00 en mm
DESCASC
Precipitaciones de 18:00 a 24:00 en mm
DESCASC
22-01-2020 11.4 (17:00) 5.8 (08:00) 8.6 7.22 (17:10) 2.78 (20:20) 1.8 1.6 0.2 0 0
21-01-2020 11.6 (13:40) 6.8 (23:59) 9.2 7.78 (21:20) 3.89 (21:20) 2.4 0 0 0.6 1.8
20-01-2020 14.5 (12:50) 8.8 (23:50) 11.7 10.83 (22:00) 3.89 (08:30) 0 0 0 0 0
19-01-2020 17.2 (16:30) 11.7 (00:00) 14.5 8.89 (08:40) 3.89 (14:00) 0 0 0 0 0
18-01-2020 15.9 (14:20) 10 (00:00) 12.9 10 (13:20) 3.89 (13:20) 0 0 0 0 0
17-01-2020 14.5 (16:00) 6.4 (00:00) 10.5 8.33 (12:40) 3.61 (12:50) 0 0 0 0 0
16-01-2020 13.4 (12:00) 3.4 (00:00) 8.4 5 (15:50) 2.78 (15:10) 0 0 0 0 0
15-01-2020 14.6 (13:50) 3.4 (00:00) 9 6.11 (13:20) 3.06 (13:40) 0 0 0 0 0
14-01-2020 15.1 (12:50) 4.7 (00:00) 9.9 9.17 (12:10) 4.72 (12:10) 0 0 0 0 0
13-01-2020 14.5 (12:40) 5 (00:00) 9.8 6.11 (13:00) 3.33 (11:50) 0 0 0 0 0
12-01-2020 12.7 (13:10) 8.9 (02:00) 10.8 10.28 (03:00) 4.17 (20:50) 0.4 0.4 0 0 0
11-01-2020 14.7 (12:50) 6.6 (00:00) 10.6 10.56 (16:20) 3.61 (04:00) 0.4 0 0 0 0.4
10-01-2020 13.9 (16:00) 8.3 (00:00) 11.1 12.5 (03:50) 4.72 (04:00) 0.4 0 0.2 0.2 0
09-01-2020 13.7 (15:40) 9.4 (00:00) 11.5 11.11 (13:10) 3.89 (02:50) 0 0 0 0 0
08-01-2020 13.3 (12:40) 8.4 (00:00) 10.8 15.28 (11:20) 6.67 (11:10) 0 0 0 0 0
07-01-2020 12.5 (09:50) 8.9 (00:00) 10.7 13.61 (13:00) 6.11 (13:20) 0 0 0 0 0
06-01-2020 13.4 (15:30) 9.2 (00:00) 11.3 12.22 (20:40) 4.72 (20:40) 0.4 0 0.2 0 0.2
05-01-2020 16 (15:20) 5.9 (00:00) 11 6.39 (09:50) 3.33 (16:20) 0 0 0 0 0
04-01-2020 12.8 (12:10) 6.6 (00:00) 9.7 10.28 (04:40) 5.28 (09:30) 0 0 0 0 0
03-01-2020 13 (12:10) 8.6 (00:00) 10.8 12.78 (08:40) 6.67 (08:50) 0 0 0 0 0
02-01-2020 12.5 (13:10) 8 (00:00) 10.3 12.5 (10:40) 6.39 (10:30) 0 0 0 0 0
01-01-2020 13.9 (12:10) 8.2 (00:00) 11 8.89 (10:40) 4.44 (10:40) 0 0 0 0 0
31-12-2019 18.7 (13:30) 9 (00:00) 13.9 9.72 (04:30) 3.61 (14:20) 0 0 0 0 0
30-12-2019 -- (--) -- (--) -- -- (--) -- (--) -- 0 0 -- 0
29-12-2019 20.9 (14:50) 10.6 (00:00) 15.8 6.39 (10:20) 3.33 (13:10) 0 0 0 0 0
28-12-2019 21.9 (14:40) 11.4 (00:00) 16.6 6.67 (01:10) 3.33 (14:50) 0 0 0 0 0
27-12-2019 20.3 (13:40) 8.8 (00:00) 14.5 6.67 (23:50) 2.78 (10:40) 0 0 0 0 0
26-12-2019 18.3 (11:00) 10.6 (00:00) 14.4 10.56 (13:20) 4.17 (12:30) 0 0 0 0 0
25-12-2019 19.5 (14:20) 12.2 (00:00) 15.8 5.28 (21:40) 2.22 (21:30) 0 0 0 0 0

Gráficas

Temp. máximas Temp. mínimas Temp. medias Precipitaciones Rachas de viento máximas Velocidades máximas media en intervalos de 10 minutos

Datos horarios

Fecha y hora oficial Temperatura (ºC) Velocidad del viento (km/h) Dirección del viento Racha (km/h) Dirección de racha Precipitación (mm) Presión (hPa) Tendencia (hPa) Humedad (%)
2020-01-23 23:00:00 5.6 4 Norte 12 Noroeste 0 -- -- 90
2020-01-23 22:00:00 4.8 5 Noroeste 9 Norte 0 -- -- 89
2020-01-23 21:00:00 6 6 Norte 12 Noroeste 0 -- -- 91
2020-01-23 20:00:00 6.6 5 Norte 12 Norte 0 -- -- 88
2020-01-23 19:00:00 8.1 3 Noroeste 10 Noroeste 0 -- -- 87
2020-01-23 18:00:00 10.2 3 Este 10 Sudeste 0.2 -- -- 88
2020-01-23 17:00:00 10.6 4 Sudeste 10 Sur 0 -- -- 92
2020-01-23 16:00:00 11.5 10 Sur 17 Sur 0 -- -- 88
2020-01-23 15:00:00 11.2 4 Norte 15 Oeste 0 -- -- 75
2020-01-23 14:00:00 10.7 4 Sur 10 Sur 0.6 -- -- 93
2020-01-23 13:00:00 10.9 5 Sur 12 Sudeste 0 -- -- 88
2020-01-23 12:00:00 12 4 Sur 11 Sudeste 0 -- -- 80
2020-01-23 11:00:00 11.5 5 Sudeste 14 Este 0 -- -- 80
2020-01-23 10:00:00 12 5 Sudeste 19 Noroeste 0 -- -- 76
2020-01-23 09:00:00 9.7 9 Noroeste 20 Norte 0 -- -- 79
2020-01-23 08:00:00 6.3 4 Noroeste 14 Nordeste 0 -- -- 94
2020-01-23 07:00:00 6.1 3 Oeste 9 Noroeste 0 -- -- 95
2020-01-23 06:00:00 6.7 3 Noroeste 9 Oeste 0 -- -- 94
2020-01-23 05:00:00 6.2 4 Noroeste 7 Noroeste 0 -- -- 93
2020-01-23 04:00:00 7.3 2 Norte 14 Oeste 0 -- -- 89
2020-01-23 03:00:00 7.5 0 Calma 15 Oeste 0 -- -- 89
2020-01-23 02:00:00 8.1 5 Norte 20 Noroeste 0 -- -- 87
2020-01-23 01:00:00 7.8 5 Noroeste 14 Noroeste 0 -- -- 87
2020-01-23 00:00:00 7.7 2 Nordeste 15 Noroeste 0 -- -- 89
2020-01-22 23:00:00 7.3 6 Noroeste 10 Noroeste 0 -- -- 91
2020-01-22 22:00:00 7.4 3 Norte 15 Norte 0 -- -- 89
2020-01-22 21:00:00 8 5 Noroeste 19 Noroeste 0 -- -- 86
2020-01-22 20:00:00 8.4 4 Noroeste 17 Noroeste 0 -- -- 86
2020-01-22 19:00:00 8.6 8 Noroeste 21 Noroeste 0 -- -- 79
2020-01-22 18:00:00 10.5 3 Noroeste 26 Oeste 0 -- -- 68
2020-01-22 17:00:00 11.4 7 Sur 15 Sur 0 -- -- 82
2020-01-22 16:00:00 10.4 3 Sudeste 11 Sur 0 -- -- 85
2020-01-22 15:00:00 10 5 Sudeste 12 Sudeste 0 -- -- 88
2020-01-22 14:00:00 10.3 7 Sudeste 11 Sudeste 0 -- -- 85
2020-01-22 13:00:00 9.8 7 Sudeste 11 Sudeste 0 -- -- 93
2020-01-22 12:00:00 9.7 3 Sudeste 14 Sudeste 0 -- -- 93
2020-01-22 11:00:00 10 5 Este 13 Este 0 -- -- 79
2020-01-22 10:00:00 9 4 Este 12 Norte 0 -- -- 78
2020-01-22 09:00:00 6.6 6 Norte 12 Norte 0 -- -- 99
2020-01-22 08:00:00 5.8 6 Norte 11 Oeste 0 -- -- 97
2020-01-22 07:00:00 6.9 5 Noroeste 10 Norte 0.2 -- -- 97
2020-01-22 06:00:00 7.4 5 Noroeste 8 Norte 1.2 -- -- 98
2020-01-22 05:00:00 6.7 4 Nordeste 12 Norte 0.4 -- -- 98
2020-01-22 04:00:00 6.1 4 Norte 15 Nordeste 0 -- -- 89
2020-01-22 03:00:00 6.8 5 Nordeste 14 Este 0 -- -- 91
2020-01-22 02:00:00 6.2 3 Este 14 Nordeste 0 -- -- 91
2020-01-22 01:00:00 6.7 7 Este 15 Este 0 -- -- 92
2020-01-22 00:00:00 6.8 4 Nordeste 21 Noroeste 0 -- -- 89
2020-01-21 23:00:00 7.3 10 Norte 23 Norte 0 -- -- 90
2020-01-21 22:00:00 7.6 4 Noroeste 28 Norte 0 -- -- 91
2020-01-21 21:00:00 8 7 Noroeste 25 Noroeste 0 -- -- 93
2020-01-21 20:00:00 8.5 8 Noroeste 20 Noroeste 1 -- -- 92
2020-01-21 19:00:00 9.1 0 Calma 11 Noroeste 0.8 -- -- 90
2020-01-21 18:00:00 9.6 5 Noroeste 15 Noroeste 0 -- -- 83
2020-01-21 17:00:00 9.8 8 Norte 22 Norte 0.2 -- -- 83
2020-01-21 16:00:00 10.5 4 Oeste 14 Noroeste 0.2 -- -- 84
2020-01-21 15:00:00 10.6 2 Noroeste 14 Noroeste 0.2 -- -- 88
2020-01-21 14:00:00 11.2 6 Sudeste 21 Nordeste 0 -- -- 79
2020-01-21 13:00:00 10.8 4 Oeste 13 Oeste 0 -- -- 78
2020-01-21 12:00:00 10.4 5 Este 12 Sur 0 -- -- 83
2020-01-21 11:00:00 10 2 Sudeste 9 Sudeste 0 -- -- 82
2020-01-21 10:00:00 9.6 4 Sudeste 9 Sudeste 0 -- -- 88
2020-01-21 09:00:00 9.1 3 Este 11 Sudeste 0 -- -- 89
2020-01-21 08:00:00 8.9 5 Este 15 Sudeste 0 -- -- 88
2020-01-21 07:00:00 8.9 5 Norte 15 Nordeste 0 -- -- 87
2020-01-21 06:00:00 9.2 2 Este 5 Este 0 -- -- 89
2020-01-21 05:00:00 9.4 3 Oeste 16 Sur 0 -- -- 82
2020-01-21 04:00:00 9.2 4 Sur 13 Este 0 -- -- 89
2020-01-21 03:00:00 8.7 7 Este 23 Sudeste 0 -- -- 86
2020-01-21 02:00:00 8.5 5 Nordeste 14 Nordeste 0 -- -- 83
2020-01-21 01:00:00 8.6 4 Nordeste 18 Nordeste 0 -- -- 82
2020-01-21 00:00:00 8.8 6 Nordeste 24 Este 0 -- -- 84
2020-01-20 23:00:00 9.1 9 Nordeste 31 Este 0 -- -- 84
2020-01-20 22:00:00 9.3 12 Nordeste 39 Nordeste 0 -- -- 82
2020-01-20 21:00:00 9.9 8 Nordeste 27 Nordeste 0 -- -- 83
2020-01-20 20:00:00 9.6 11 Nordeste 27 Este 0 -- -- 84
2020-01-20 19:00:00 10.3 7 Sudeste 23 Norte 0 -- -- 80
2020-01-20 18:00:00 11 6 Sudeste 22 Este 0 -- -- 75
2020-01-20 17:00:00 12.3 9 Este 23 Este 0 -- -- 73
2020-01-20 16:00:00 13.8 7 Sur 21 Sudeste 0 -- -- 75
2020-01-20 15:00:00 13.5 8 Sudeste 19 Este 0 -- -- 75
2020-01-20 14:00:00 14.2 10 Sudeste 21 Sur 0 -- -- 74
2020-01-20 13:00:00 14.2 10 Sudeste 19 Sudeste 0 -- -- 73
2020-01-20 12:00:00 13.8 9 Sudeste 15 Sudeste 0 -- -- 70
2020-01-20 11:00:00 14 7 Sudeste 15 Sur 0 -- -- 71
2020-01-20 10:00:00 10.9 0 Calma 16 Noroeste 0 -- -- 83
2020-01-20 09:00:00 11.3 4 Noroeste 36 Norte 0 -- -- 81
2020-01-20 08:00:00 11.4 9 Norte 27 Norte 0 -- -- 77
2020-01-20 07:00:00 12.3 11 Norte 25 Norte 0 -- -- 64
2020-01-20 06:00:00 12.7 11 Norte 28 Norte 0 -- -- 57
2020-01-20 05:00:00 12.9 13 Norte 31 Nordeste 0 -- -- 57
2020-01-20 04:00:00 14.1 8 Norte 25 Nordeste 0 -- -- 55
2020-01-20 03:00:00 14.1 8 Nordeste 23 Nordeste 0 -- -- 53
2020-01-20 02:00:00 13.6 7 Norte 21 Norte 0 -- -- 52
2020-01-20 01:00:00 14 11 Nordeste 23 Norte 0 -- -- 40
2020-01-20 00:00:00 13.8 5 Nordeste 16 Sudeste 0 -- -- 40
2020-01-19 23:00:00 14.4 5 Nordeste 16 Nordeste 0 -- -- 27
2020-01-19 22:00:00 12.2 3 Norte 11 Norte 0 -- -- 27
2020-01-19 21:00:00 14.3 5 Norte 15 Norte 0 -- -- 22
2020-01-19 20:00:00 12.7 5 Norte 13 Norte 0 -- -- 25
2020-01-19 19:00:00 13.1 3 Nordeste 14 Este 0 -- -- 31
2020-01-19 18:00:00 14.9 5 Nordeste 12 Nordeste 0 -- -- 25
2020-01-19 17:00:00 16.2 6 Este 21 Nordeste 0 -- -- 24
2020-01-19 16:00:00 16.6 9 Nordeste 23 Nordeste 0 -- -- 17
2020-01-19 15:00:00 16 6 Este 28 Sudeste 0 -- -- 22
2020-01-19 14:00:00 16.1 14 Este 31 Este 0 -- -- 21
2020-01-19 13:00:00 16.6 11 Este 27 Sudeste 0 -- -- 21
2020-01-19 12:00:00 16.6 12 Este 31 Nordeste 0 -- -- 22
2020-01-19 11:00:00 15.9 12 Este 27 Nordeste 0 -- -- 24
2020-01-19 10:00:00 15.6 9 Este 24 Sudeste 0 -- -- 24
2020-01-19 09:00:00 13.2 6 Nordeste 32 Sudeste 0 -- -- 29
2020-01-19 08:00:00 12 7 Nordeste 27 Sur 0 -- -- 31
2020-01-19 07:00:00 11.7 7 Norte 27 Nordeste 0 -- -- 30
2020-01-19 06:00:00 11.9 7 Nordeste 21 Norte 0 -- -- 27
2020-01-19 05:00:00 12 6 Nordeste 23 Este 0 -- -- 28
2020-01-19 04:00:00 12.5 7 Nordeste 20 Este 0 -- -- 23
2020-01-19 03:00:00 12.5 9 Nordeste 24 Este 0 -- -- 19
2020-01-19 02:00:00 12.4 6 Nordeste 28 Norte 0 -- -- 24
2020-01-19 01:00:00 13.6 9 Nordeste 31 Este 0 -- -- 24
2020-01-19 00:00:00 13.4 9 Nordeste 22 Este 0 -- -- 30
2020-01-18 23:00:00 13.6 10 Nordeste 24 Este 0 -- -- 28
2020-01-18 22:00:00 12.8 8 Nordeste 22 Norte 0 -- -- 30
2020-01-18 21:00:00 12.6 8 Nordeste 24 Este 0 -- -- 34
2020-01-18 20:00:00 12 9 Nordeste 26 Este 0 -- -- 38
2020-01-18 19:00:00 12 12 Nordeste 27 Este 0 -- -- 38
2020-01-18 18:00:00 12.8 8 Nordeste 27 Nordeste 0 -- -- 35
2020-01-18 17:00:00 13.6 8 Nordeste 23 Este 0 -- -- 35
2020-01-18 16:00:00 14.6 9 Este 35 Sudeste 0 -- -- 40
2020-01-18 15:00:00 15.5 14 Este 31 Sur 0 -- -- 39
2020-01-18 14:00:00 15.6 12 Este 36 Este 0 -- -- 33
2020-01-18 13:00:00 15.4 13 Este 30 Sudeste 0 -- -- 32
2020-01-18 12:00:00 14.3 14 Este 30 Sudeste 0 -- -- 58
2020-01-18 11:00:00 14.1 13 Este 31 Este 0 -- -- 53
2020-01-18 10:00:00 13.4 13 Este 32 Sudeste 0 -- -- 46
2020-01-18 09:00:00 13.1 10 Este 22 Este 0 -- -- 37
2020-01-18 08:00:00 11.6 11 Nordeste 33 Sudeste 0 -- -- 34
2020-01-18 07:00:00 12.1 9 Este 32 Sudeste 0 -- -- 28
2020-01-18 06:00:00 12.1 8 Este 29 Este 0 -- -- 24
2020-01-18 05:00:00 12.8 9 Este 30 Este 0 -- -- 20
2020-01-18 04:00:00 12.1 8 Este 25 Este 0 -- -- 20
2020-01-18 03:00:00 11.8 7 Norte 23 Nordeste 0 -- -- 21
2020-01-18 02:00:00 12 5 Nordeste 27 Norte 0 -- -- 22
2020-01-18 01:00:00 10.2 8 Norte 19 Norte 0 -- -- 26
2020-01-18 00:00:00 11.7 9 Norte 20 Nordeste 0 -- -- 21
2020-01-17 23:00:00 8 5 Norte 13 Norte 0 -- -- 30
2020-01-17 22:00:00 8.2 7 Norte 16 Norte 0 -- -- 31
2020-01-17 21:00:00 8.3 5 Norte 13 Norte 0 -- -- 33
2020-01-17 20:00:00 8.3 6 Norte 12 Este 0 -- -- 34
2020-01-17 19:00:00 9 5 Norte 12 Norte 0 -- -- 39
2020-01-17 18:00:00 12.4 8 Nordeste 20 Este 0 -- -- 40
2020-01-17 17:00:00 13.4 8 Este 18 Este 0 -- -- 57
2020-01-17 16:00:00 14.5 8 Este 17 Este 0 -- -- 51
2020-01-17 15:00:00 13.9 9 Este 23 Este 0 -- -- 46
2020-01-17 14:00:00 14 10 Este 23 Sudeste 0 -- -- 42
2020-01-17 13:00:00 13.5 13 Este 30 Nordeste 0 -- -- 51
2020-01-17 12:00:00 13.8 9 Este 25 Este 0 -- -- 57
2020-01-17 11:00:00 13.4 9 Este 23 Sudeste 0 -- -- 57
2020-01-17 10:00:00 12.9 10 Este 19 Nordeste 0 -- -- 45
2020-01-17 09:00:00 11 6 Este 15 Este 0 -- -- 35
2020-01-17 08:00:00 8.1 5 Norte 27 Nordeste 0 -- -- 52
2020-01-17 07:00:00 9 10 Norte 25 Nordeste 0 -- -- 47
2020-01-17 06:00:00 9 6 Norte 24 Noroeste 0 -- -- 45
2020-01-17 05:00:00 9.3 9 Nordeste 26 Nordeste 0 -- -- 42
2020-01-17 04:00:00 6.8 5 Norte 15 Norte 0 -- -- 46
2020-01-17 03:00:00 6.7 6 Norte 14 Norte 0 -- -- 56
2020-01-17 02:00:00 6.5 6 Nordeste 16 Este 0 -- -- 63
2020-01-17 01:00:00 7.3 7 Nordeste 15 Nordeste 0 -- -- 65
2020-01-17 00:00:00 7.5 6 Nordeste 18 Este 0 -- -- 59
2020-01-16 23:00:00 8.5 6 Nordeste 18 Norte 0 -- -- 42
2020-01-16 22:00:00 7.7 6 Norte 14 Nordeste 0 -- -- 55
2020-01-16 21:00:00 6.7 5 Norte 13 Nordeste 0 -- -- 52
2020-01-16 20:00:00 6.7 5 Norte 13 Nordeste 0 -- -- 55
2020-01-16 19:00:00 8.1 6 Norte 10 Norte 0 -- -- 60
2020-01-16 18:00:00 11.2 6 Este 15 Este 0 -- -- 87
2020-01-16 17:00:00 11.9 8 Este 16 Este 0 -- -- 84
2020-01-16 16:00:00 12.6 9 Este 18 Este 0 -- -- 80
2020-01-16 15:00:00 13.4 9 Este 17 Sudeste 0 -- -- 75
2020-01-16 14:00:00 12.8 9 Este 18 Sudeste 0 -- -- 77
2020-01-16 13:00:00 12.3 7 Este 17 Sudeste 0 -- -- 78
2020-01-16 12:00:00 13.4 7 Sudeste 14 Sudeste 0 -- -- 71
2020-01-16 11:00:00 13 6 Sudeste 17 Sudeste 0 -- -- 64
2020-01-16 10:00:00 12.3 7 Este 13 Sudeste 0 -- -- 68
2020-01-16 09:00:00 6.8 4 Norte 9 Norte 0 -- -- 61
2020-01-16 08:00:00 3.9 8 Norte 9 Norte 0 -- -- 58
2020-01-16 07:00:00 3.9 6 Norte 9 Norte 0 -- -- 58
2020-01-16 06:00:00 3.6 8 Norte 11 Noroeste 0 -- -- 59
2020-01-16 05:00:00 3.5 8 Norte 12 Norte 0 -- -- 57
2020-01-16 04:00:00 3.5 8 Norte 10 Norte 0 -- -- 52
2020-01-16 03:00:00 3.8 8 Norte 10 Norte 0 -- -- 55
2020-01-16 02:00:00 4 7 Norte 10 Norte 0 -- -- 55
2020-01-16 01:00:00 4.4 7 Norte 10 Norte 0 -- -- 61
2020-01-16 00:00:00 4.7 6 Norte 12 Norte 0 -- -- 57
2020-01-15 23:00:00 5 6 Norte 13 Nordeste 0 -- -- 59
2020-01-15 22:00:00 5.1 8 Norte 10 Norte 0 -- -- 59
2020-01-15 21:00:00 5.8 7 Norte 10 Norte 0 -- -- 71
2020-01-15 20:00:00 6.4 6 Norte 9 Norte 0 -- -- 69
2020-01-15 19:00:00 8.5 6 Norte 9 Norte 0 -- -- 64
2020-01-15 18:00:00 11.3 5 Este 12 Sudeste 0 -- -- 77
2020-01-15 17:00:00 12.1 5 Este 14 Sudeste 0 -- -- 50
2020-01-15 16:00:00 13.2 7 Este 21 Sudeste 0 -- -- 60
2020-01-15 15:00:00 13.7 7 Sudeste 21 Sudeste 0 -- -- 58
2020-01-15 14:00:00 14.2 9 Sudeste 22 Sudeste 0 -- -- 56
2020-01-15 13:00:00 14.2 10 Sudeste 21 Sudeste 0 -- -- 60
2020-01-15 12:00:00 13.4 10 Sudeste 20 Sudeste 0 -- -- 60
2020-01-15 11:00:00 13 9 Sudeste 20 Sudeste 0 -- -- 40
2020-01-15 10:00:00 12 6 Sudeste 15 Este 0 -- -- 54
2020-01-15 09:00:00 5.9 3 Norte 10 Norte 0 -- -- 62
2020-01-15 08:00:00 3.4 7 Norte 10 Norte 0 -- -- 62
2020-01-15 07:00:00 3.5 8 Norte 12 Noroeste 0 -- -- 63
2020-01-15 06:00:00 3.6 8 Norte 12 Norte 0 -- -- 62
2020-01-15 05:00:00 3.7 8 Norte 12 Norte 0 -- -- 60
2020-01-15 04:00:00 3.9 7 Norte 12 Norte 0 -- -- 59
2020-01-15 03:00:00 4.2 7 Norte 12 Norte 0 -- -- 56
2020-01-15 02:00:00 4.7 6 Norte 8 Norte 0 -- -- 68
2020-01-15 01:00:00 4.6 6 Norte 9 Norte 0 -- -- 57
2020-01-15 00:00:00 4.7 6 Norte 10 Norte 0 -- -- 58
2020-01-14 23:00:00 4.9 8 Norte 11 Norte 0 -- -- 59
2020-01-14 22:00:00 5.5 6 Norte 10 Norte 0 -- -- 74
2020-01-14 21:00:00 5.6 5 Norte 10 Norte 0 -- -- 63
2020-01-14 20:00:00 7 6 Norte 8 Norte 0 -- -- 76
2020-01-14 19:00:00 8.4 6 Norte 8 Este 0 -- -- 57
2020-01-14 18:00:00 12.1 3 Sudeste 12 Sudeste 0 -- -- 39
2020-01-14 17:00:00 12.7 9 Sudeste 20 Sur 0 -- -- 68
2020-01-14 16:00:00 14.2 11 Sudeste 22 Sur 0 -- -- 44
2020-01-14 15:00:00 14.8 12 Sur 26 Sur 0 -- -- 52
2020-01-14 14:00:00 14.1 11 Sur 28 Sur 0 -- -- 64
2020-01-14 13:00:00 14.8 16 Sur 33 Sur 0 -- -- 56
2020-01-14 12:00:00 14.9 14 Sur 28 Sur 0 -- -- 58
2020-01-14 11:00:00 14 13 Sur 29 Sur 0 -- -- 66
2020-01-14 10:00:00 13.1 10 Sur 19 Sur 0 -- -- 69
2020-01-14 09:00:00 10 3 Sur 12 Sudoeste 0 -- -- 91
2020-01-14 08:00:00 7.2 3 Norte 15 Sudeste 0 -- -- 86
2020-01-14 07:00:00 8.8 5 Sur 21 Sudoeste 0 -- -- 78
2020-01-14 06:00:00 6.8 3 Sudoeste 8 Nordeste 0 -- -- 64
2020-01-14 05:00:00 7.1 2 Este 12 Sur 0 -- -- 58
2020-01-14 04:00:00 7.2 3 Noroeste 10 Sur 0 -- -- 54
2020-01-14 03:00:00 7.4 3 Sudoeste 12 Sur 0 -- -- 51
2020-01-14 02:00:00 6.8 2 Oeste 11 Sur 0 -- -- 54
2020-01-14 01:00:00 6.2 3 Oeste 8 Sudeste 0 -- -- 57
2020-01-14 00:00:00 6.2 3 Noroeste 6 Noroeste 0 -- -- 68
2020-01-13 23:00:00 6.7 4 Norte 7 Noroeste 0 -- -- 84
2020-01-13 22:00:00 7.3 2 Noroeste 6 Noroeste 0 -- -- 84
2020-01-13 21:00:00 7.7 4 Noroeste 8 Noroeste 0 -- -- 88
2020-01-13 20:00:00 8.1 4 Norte 7 Norte 0 -- -- 85
2020-01-13 19:00:00 9 5 Norte 8 Norte 0 -- -- 78
2020-01-13 18:00:00 11.4 4 Este 14 Este 0 -- -- 82
2020-01-13 17:00:00 12.1 7 Este 15 Nordeste 0 -- -- 75
2020-01-13 16:00:00 13 9 Este 21 Sudeste 0 -- -- 61
2020-01-13 15:00:00 14.3 9 Este 18 Este 0 -- -- 52
2020-01-13 14:00:00 14.4 8 Este 20 Este 0 -- -- 55
2020-01-13 13:00:00 14.2 11 Este 22 Este 0 -- -- 53
2020-01-13 12:00:00 13.8 11 Este 20 Sudeste 0 -- -- 56
2020-01-13 11:00:00 13.5 9 Este 17 Nordeste 0 -- -- 56
2020-01-13 10:00:00 12.9 7 Este 14 Nordeste 0 -- -- 59
2020-01-13 09:00:00 7.9 3 Norte 13 Norte 0 -- -- 80
2020-01-13 08:00:00 5.4 5 Norte 10 Norte 0 -- -- 80
2020-01-13 07:00:00 6.2 5 Norte 15 Nordeste 0 -- -- 74
2020-01-13 06:00:00 6.1 2 Norte 13 Norte 0 -- -- 72
2020-01-13 05:00:00 5.1 5 Norte 13 Norte 0 -- -- 79
2020-01-13 04:00:00 5.6 6 Norte 18 Este 0 -- -- 82
2020-01-13 03:00:00 6.3 5 Nordeste 14 Norte 0 -- -- 83
2020-01-13 02:00:00 6.8 5 Norte 13 Nordeste 0 -- -- 89
2020-01-13 01:00:00 7.5 5 Norte 13 Nordeste 0 -- -- 88
2020-01-13 00:00:00 10.3 5 Nordeste 24 Este 0 -- -- 98
2020-01-12 23:00:00 10.2 9 Nordeste 31 Este 0 -- -- 96
2020-01-12 22:00:00 9.7 6 Nordeste 24 Este 0 -- -- 89
2020-01-12 21:00:00 9.8 10 Este 29 Este 0 -- -- 90
2020-01-12 20:00:00 10.2 5 Nordeste 18 Este 0 -- -- 90
2020-01-12 19:00:00 10.1 4 Nordeste 22 Este 0 -- -- 90
2020-01-12 18:00:00 10.4 6 Nordeste 17 Sudeste 0 -- -- 94
2020-01-12 17:00:00 10.6 5 Oeste 20 Sudeste 0 -- -- 95
2020-01-12 16:00:00 10.7 9 Sudeste 23 Sudeste 0 -- -- 94
2020-01-12 15:00:00 10.9 7 Sudeste 18 Sudeste 0 -- -- 94
2020-01-12 14:00:00 11.4 5 Este 17 Sur 0 -- -- 90
2020-01-12 13:00:00 12.1 3 Nordeste 10 Sur 0 -- -- 81
2020-01-12 12:00:00 10.6 5 Sudeste 33 Sudeste 0 -- -- 93
2020-01-12 11:00:00 10.7 14 Este 30 Sudeste 0 -- -- 90
2020-01-12 10:00:00 10.2 12 Este 28 Sudeste 0 -- -- 96
2020-01-12 09:00:00 9.8 9 Este 31 Nordeste 0 -- -- 95
2020-01-12 08:00:00 9.7 11 Nordeste 36 Nordeste 0 -- -- 95
2020-01-12 07:00:00 9.7 9 Nordeste 33 Nordeste 0 -- -- 94
2020-01-12 06:00:00 9.7 9 Nordeste 33 Nordeste 0 -- -- 94
2020-01-12 05:00:00 9.4 12 Nordeste 35 Nordeste 0 -- -- 89
2020-01-12 04:00:00 9.4 11 Nordeste 34 Nordeste 0 -- -- 91
2020-01-12 03:00:00 9.2 11 Nordeste 37 Nordeste 0.2 -- -- 93
2020-01-12 02:00:00 8.9 5 Norte 22 Norte 0.2 -- -- 94
2020-01-12 01:00:00 9.6 5 Norte 24 Nordeste 0 -- -- 90
2020-01-12 00:00:00 9.4 9 Nordeste 27 Norte 0.2 -- -- 90
2020-01-11 23:00:00 9.7 7 Nordeste 21 Nordeste 0 -- -- 92
2020-01-11 22:00:00 10.1 6 Nordeste 24 Norte 0.2 -- -- 93
2020-01-11 21:00:00 10 7 Nordeste 21 Este 0 -- -- 92
2020-01-11 20:00:00 10.3 5 Nordeste 27 Norte 0 -- -- 89
2020-01-11 19:00:00 10.2 5 Nordeste 24 Noroeste 0 -- -- 83
2020-01-11 18:00:00 10.9 9 Nordeste 28 Norte 0 -- -- 82
2020-01-11 17:00:00 11.6 10 Nordeste 38 Noroeste 0 -- -- 83
2020-01-11 16:00:00 12.7 9 Nordeste 30 Este 0 -- -- 76
2020-01-11 15:00:00 12.6 9 Nordeste 24 Norte 0 -- -- 74
2020-01-11 14:00:00 12.4 7 Nordeste 22 Noroeste 0 -- -- 82
2020-01-11 13:00:00 14.4 9 Norte 24 Norte 0 -- -- 70
2020-01-11 12:00:00 12.5 9 Nordeste 28 Este 0 -- -- 79
2020-01-11 11:00:00 11.6 12 Norte 26 Noroeste 0 -- -- 81
2020-01-11 10:00:00 11.9 5 Nordeste 15 Norte 0 -- -- 83
2020-01-11 09:00:00 8.3 3 Oeste 10 Sudoeste 0 -- -- 100
2020-01-11 08:00:00 6.9 5 Noroeste 8 Norte 0 -- -- 97
2020-01-11 07:00:00 9.6 3 Nordeste 21 Este 0 -- -- 90
2020-01-11 06:00:00 10.6 9 Nordeste 21 Norte 0 -- -- 96
2020-01-11 05:00:00 10.6 9 Este 31 Nordeste 0 -- -- 92
2020-01-11 04:00:00 10.1 13 Norte 30 Norte 0 -- -- 90
2020-01-11 03:00:00 9.4 4 Norte 22 Nordeste 0 -- -- 88
2020-01-11 02:00:00 10.6 7 Norte 37 Norte 0 -- -- 87
2020-01-11 01:00:00 10.5 8 Norte 28 Norte 0 -- -- 88
2020-01-11 00:00:00 10.3 12 Norte 32 Noroeste 0 -- -- 90
2020-01-10 23:00:00 8.9 6 Nordeste 20 Nordeste 0 -- -- 93
2020-01-10 22:00:00 9.3 3 Oeste 17 Norte 0 -- -- 92
2020-01-10 21:00:00 11.2 12 Este 31 Sudeste 0 -- -- 93
2020-01-10 20:00:00 11.1 9 Nordeste 30 Este 0 -- -- 90
2020-01-10 19:00:00 11.4 10 Este 35 Este 0 -- -- 90
2020-01-10 18:00:00 12 10 Este 26 Noroeste 0 -- -- 83
2020-01-10 17:00:00 13.2 7 Norte 30 Este 0 -- -- 85
2020-01-10 16:00:00 13.9 9 Nordeste 35 Nordeste 0 -- -- 77
2020-01-10 15:00:00 13.6 9 Nordeste 28 Nordeste 0 -- -- 86
2020-01-10 14:00:00 12.8 8 Este 31 Nordeste 0 -- -- 90
2020-01-10 13:00:00 13 8 Nordeste 28 Este 0.2 -- -- 96
2020-01-10 12:00:00 12.6 10 Nordeste 35 Norte 0.2 -- -- 91
2020-01-10 11:00:00 13.3 8 Nordeste 36 Este 0 -- -- 83
2020-01-10 10:00:00 12.8 9 Nordeste 26 Este 0 -- -- 83
2020-01-10 09:00:00 11.7 10 Nordeste 28 Este 0 -- -- 87
2020-01-10 08:00:00 10.5 10 Nordeste 35 Este 0 -- -- 90
2020-01-10 07:00:00 10.3 14 Nordeste 36 Norte 0 -- -- 88
2020-01-10 06:00:00 10.3 12 Norte 31 Nordeste 0 -- -- 88
2020-01-10 05:00:00 10.7 10 Nordeste 40 Norte 0 -- -- 96
2020-01-10 04:00:00 10.4 17 Norte 45 Norte 0 -- -- 86
2020-01-10 03:00:00 9.7 12 Norte 30 Norte 0 -- -- 86
2020-01-10 02:00:00 9.9 11 Nordeste 29 Norte 0 -- -- 86
2020-01-10 01:00:00 10.1 9 Nordeste 31 Norte 0 -- -- 86
2020-01-10 00:00:00 9.8 10 Nordeste 36 Norte 0 -- -- 87
2020-01-09 23:00:00 9.6 9 Norte 29 Nordeste 0 -- -- 86
2020-01-09 22:00:00 9.7 9 Nordeste 29 Norte 0 -- -- 85
2020-01-09 21:00:00 10.2 9 Nordeste 29 Noroeste 0 -- -- 84
2020-01-09 20:00:00 10.4 10 Nordeste 35 Norte 0 -- -- 83
2020-01-09 19:00:00 10.3 12 Norte 33 Norte 0 -- -- 82
2020-01-09 18:00:00 10.9 10 Nordeste 34 Noroeste 0 -- -- 81
2020-01-09 17:00:00 11.6 12 Este 39 Este 0 -- -- 80
2020-01-09 16:00:00 12.9 14 Nordeste 33 Nordeste 0 -- -- 70
2020-01-09 15:00:00 13.4 12 Norte 32 Norte 0 -- -- 72
2020-01-09 14:00:00 12.7 10 Sudeste 40 Norte 0 -- -- 72
2020-01-09 13:00:00 12.8 12 Norte 27 Norte 0 -- -- 73
2020-01-09 12:00:00 12.9 10 Sudeste 30 Sudeste 0 -- -- 69
2020-01-09 11:00:00 12.1 9 Nordeste 28 Este 0 -- -- 78
2020-01-09 10:00:00 10.7 7 Nordeste 26 Norte 0 -- -- 87
2020-01-09 09:00:00 10.6 10 Nordeste 31 Nordeste 0 -- -- 88
2020-01-09 08:00:00 10.1 9 Nordeste 34 Nordeste 0 -- -- 89
2020-01-09 07:00:00 9.5 10 Norte 30 Este 0 -- -- 76
2020-01-09 06:00:00 9.6 11 Nordeste 36 Nordeste 0 -- -- 88
2020-01-09 05:00:00 9.6 12 Nordeste 34 Norte 0 -- -- 85
2020-01-09 04:00:00 9.7 12 Nordeste 32 Nordeste 0 -- -- 85
2020-01-09 03:00:00 9.8 12 Nordeste 34 Este 0 -- -- 88
2020-01-09 02:00:00 9.8 13 Nordeste 33 Nordeste 0 -- -- 89
2020-01-09 01:00:00 9.8 8 Nordeste 35 Nordeste 0 -- -- 89
2020-01-09 00:00:00 9.4 11 Norte 33 Nordeste 0 -- -- 85
2020-01-08 23:00:00 9.1 9 Norte 35 Norte 0 -- -- 81
2020-01-08 22:00:00 9.4 12 Norte 31 Nordeste 0 -- -- 82
2020-01-08 21:00:00 9.5 10 Nordeste 29 Este 0 -- -- 84
2020-01-08 20:00:00 9.4 7 Nordeste 27 Norte 0 -- -- 84
2020-01-08 19:00:00 9.6 9 Norte 23 Norte 0 -- -- 84
2020-01-08 18:00:00 11 8 Nordeste 21 Nordeste 0 -- -- 82
2020-01-08 17:00:00 11.4 5 Este 21 Nordeste 0 -- -- 84
2020-01-08 16:00:00 10.7 6 Nordeste 25 Sudeste 0 -- -- 95
2020-01-08 15:00:00 10.8 14 Sudeste 29 Este 0 -- -- 97
2020-01-08 14:00:00 11.6 11 Sudeste 24 Sudeste 0 -- -- 89
2020-01-08 13:00:00 12.5 18 Sudeste 41 Este 0 -- -- 86
2020-01-08 12:00:00 12 13 Este 55 Sudeste 0 -- -- 85
2020-01-08 11:00:00 11.8 20 Este 54 Sudeste 0 -- -- 78
2020-01-08 10:00:00 11.2 13 Este 51 Sudeste 0 -- -- 85
2020-01-08 09:00:00 10.3 11 Nordeste 41 Nordeste 0 -- -- 90
2020-01-08 08:00:00 9.4 10 Nordeste 29 Nordeste 0 -- -- 82
2020-01-08 07:00:00 10 14 Norte 36 Nordeste 0 -- -- 67
2020-01-08 06:00:00 9.9 13 Norte 33 Norte 0 -- -- 59
2020-01-08 05:00:00 9.8 13 Norte 30 Este 0 -- -- 66
2020-01-08 04:00:00 9.4 11 Nordeste 30 Nordeste 0 -- -- 89
2020-01-08 03:00:00 9.4 10 Norte 24 Norte 0 -- -- 86
2020-01-08 02:00:00 8.5 9 Norte 25 Norte 0 -- -- 80
2020-01-08 01:00:00 9 8 Norte 21 Norte 0 -- -- 78
2020-01-08 00:00:00 8.9 7 Norte 25 Nordeste 0 -- -- 84
2020-01-07 23:00:00 10 9 Nordeste 27 Norte 0 -- -- 89
2020-01-07 22:00:00 10.1 7 Norte 17 Nordeste 0 -- -- 92
2020-01-07 21:00:00 10.1 6 Este 18 Nordeste 0 -- -- 92
2020-01-07 20:00:00 10.2 8 Este 24 Este 0 -- -- 94
2020-01-07 19:00:00 9.6 9 Nordeste 23 Nordeste 0 -- -- 80
2020-01-07 18:00:00 11.3 5 Norte 17 Nordeste 0 -- -- 74
2020-01-07 17:00:00 11.7 7 Nordeste 21 Sudeste 0 -- -- 79
2020-01-07 16:00:00 10.7 11 Este 36 Sudeste 0 -- -- 89
2020-01-07 15:00:00 11.3 18 Sudeste 40 Sudeste 0 -- -- 74
2020-01-07 14:00:00 11 15 Sur 48 Sudeste 0 -- -- 89
2020-01-07 13:00:00 11.3 16 Sudeste 49 Sudeste 0 -- -- 81
2020-01-07 12:00:00 12.3 10 Sudeste 36 Sudeste 0 -- -- 79
2020-01-07 11:00:00 12.1 19 Sudeste 42 Norte 0 -- -- 74
2020-01-07 10:00:00 12.5 11 Este 40 Sudeste 0 -- -- 69
2020-01-07 09:00:00 11.4 12 Norte 41 Nordeste 0 -- -- 62
2020-01-07 08:00:00 10.1 13 Nordeste 37 Noroeste 0 -- -- 70
2020-01-07 07:00:00 10.2 12 Nordeste 34 Norte 0 -- -- 82
2020-01-07 06:00:00 10.2 13 Nordeste 32 Norte 0 -- -- 70
2020-01-07 05:00:00 10.6 12 Norte 41 Nordeste 0 -- -- 79
2020-01-07 04:00:00 9.7 12 Norte 37 Nordeste 0 -- -- 82
2020-01-07 03:00:00 9.5 12 Nordeste 40 Nordeste 0 -- -- 82
2020-01-07 02:00:00 9.6 11 Nordeste 36 Nordeste 0 -- -- 78
2020-01-07 01:00:00 10.4 12 Nordeste 39 Norte 0 -- -- 85
2020-01-07 00:00:00 10 10 Norte 32 Norte 0 -- -- 86
2020-01-06 23:00:00 9.8 10 Nordeste 36 Nordeste 0 -- -- 72
2020-01-06 22:00:00 9.8 12 Norte 42 Norte 0 -- -- 77
2020-01-06 21:00:00 10.3 13 Norte 44 Norte 0 -- -- 83
2020-01-06 20:00:00 10.7 8 Norte 29 Norte 0.2 -- -- 88
2020-01-06 19:00:00 11 6 Nordeste 28 Norte 0 -- -- 85
2020-01-06 18:00:00 11.6 11 Nordeste 33 Nordeste 0 -- -- 80
2020-01-06 17:00:00 12.1 13 Nordeste 35 Este 0 -- -- 79
2020-01-06 16:00:00 12.6 10 Nordeste 32 Este 0 -- -- 72
2020-01-06 15:00:00 12.7 9 Sudeste 33 Norte 0 -- -- 74
2020-01-06 14:00:00 11.8 8 Nordeste 27 Noroeste 0 -- -- 82
2020-01-06 13:00:00 12.1 4 Este 37 Este 0 -- -- 80
2020-01-06 12:00:00 10.8 9 Nordeste 39 Este 0.2 -- -- 94
2020-01-06 11:00:00 10.8 13 Este 32 Sudeste 0 -- -- 94
2020-01-06 10:00:00 11.1 9 Nordeste 26 Nordeste 0 -- -- 89
2020-01-06 09:00:00 10.6 8 Este 32 Este 0 -- -- 91